This is the latest recevied weather packets stored in our database for station/object DB0WUN-13. If no packets are shown the sender has not sent any weather packets the latest 1 day(s).
| Time | Temp. | Humidity | Pressure | Rain* | Wind** | Luminosity | Snow |
|---|---|---|---|---|---|---|---|
| 1778075728 | 16.11° C | 62% | 1006.8 hPa | 0 mm | - | 287 W/m² | - |
| 1778075534 | 16.67° C | 62% | 1006.8 hPa | 0 mm | - | 283 W/m² | - |
| 1778075347 | 16.67° C | 62% | 1006.7 hPa | 0 mm | - | 255 W/m² | - |
| 1778075296 | 16.67° C | 62% | 1006.7 hPa | 0 mm | - | 246 W/m² | - |
| 1778075167 | 16.67° C | 63% | 1006.8 hPa | 0 mm | - | 243 W/m² | - |
| 1778074991 | 16.67° C | 62% | 1006.8 hPa | 0 mm | - | 257 W/m² | - |
| 1778074865 | 16.67° C | 64% | 1006.8 hPa | 0 mm | - | 274 W/m² | - |
| 1778074752 | 16.11° C | 63% | 1006.8 hPa | 0 mm | - | 290 W/m² | - |
| 1778074692 | 16.11° C | 63% | 1006.9 hPa | 0 mm | - | 295 W/m² | - |
| 1778074565 | 16.11° C | 62% | 1006.8 hPa | 0 mm | - | 285 W/m² | - |
| 1778074059 | 16.11° C | 62% | 1007 hPa | 0 mm | - | 218 W/m² | - |
| 1778074002 | 16.11° C | 62% | 1007 hPa | 0 mm | - | 214 W/m² | - |
| 1778073668 | 16.11° C | 62% | 1007 hPa | 0 mm | - | 214 W/m² | - |
| 1778073507 | 16.11° C | 63% | 1007.1 hPa | 0 mm | - | 223 W/m² | - |
| 1778073431 | 16.11° C | 63% | 1007.1 hPa | 0 mm | - | 237 W/m² | - |
| 1778073391 | 16.11° C | 64% | 1007.1 hPa | 0 mm | - | 241 W/m² | - |
| 1778073350 | 16.11° C | 63% | 1007.1 hPa | 0 mm | - | 243 W/m² | - |
| 1778073120 | 16.11° C | 63% | 1007.1 hPa | 0 mm | - | 244 W/m² | - |
| 1778073000 | 16.11° C | 63% | 1007.2 hPa | 0 mm | - | 251 W/m² | - |
| 1778072875 | 16.11° C | 61% | 1007.2 hPa | 0 mm | - | 278 W/m² | - |
| 1778072815 | 16.67° C | 62% | 1007.1 hPa | 0 mm | - | 283 W/m² | - |
| 1778072718 | 16.11° C | 62% | 1007.1 hPa | 0 mm | - | 288 W/m² | - |
| 1778072633 | 16.11° C | 61% | 1007.2 hPa | 0 mm | - | 316 W/m² | - |
| 1778072552 | 16.11° C | 61% | 1007.2 hPa | 0 mm | - | 311 W/m² | - |
| 1778072495 | 16.11° C | 61% | 1007.2 hPa | 0 mm | - | 313 W/m² | - |
* Rain latest hour (hover to see other rain measurements)
** Current wind speed in m/s (hover to see current wind gust speed)